This is the latest recevied weather packets stored in our database for station/object 9M2ABD-1. If no packets are shown the sender has not sent any weather packets the latest 1 day(s).
| Time | Temp. | Humidity | Pressure | Rain* | Wind** | Luminosity | Snow |
|---|---|---|---|---|---|---|---|
| 1777892386 | 30° C | 76% | 1008.8 hPa | - | - | - | - |
| 1777891182 | 30° C | 76% | 1008.4 hPa | - | - | - | - |
| 1777889982 | 30° C | 75% | 1008.2 hPa | - | - | - | - |
| 1777888820 | 30° C | 75% | 1008.2 hPa | - | - | - | - |
| 1777888783 | 30° C | 75% | 1008.2 hPa | - | - | - | - |
| 1777887582 | 30° C | 75% | 1008.3 hPa | - | - | - | - |
| 1777886382 | 30° C | 76% | 1007.6 hPa | - | - | - | - |
| 1777885182 | 30° C | 75% | 1007.7 hPa | - | - | - | - |
| 1777883982 | 30.56° C | 76% | 1008 hPa | - | - | - | - |
| 1777882782 | 30° C | 77% | 1008.1 hPa | - | - | - | - |
| 1777881639 | 30° C | 79% | 1008.3 hPa | - | - | - | - |
| 1777881582 | 30° C | 79% | 1008.3 hPa | - | - | - | - |
| 1777880382 | 29.44° C | 76% | 1008.6 hPa | - | - | - | - |
| 1777879182 | 29.44° C | 75% | 1008.7 hPa | - | - | - | - |
| 1777877982 | 30° C | 75% | 1009.4 hPa | - | - | - | - |
| 1777876782 | 30.56° C | 77% | 1009.8 hPa | - | - | - | - |
| 1777875582 | 30.56° C | 75% | 1010 hPa | - | - | - | - |
| 1777874382 | 31.11° C | 72% | 1010.3 hPa | - | - | - | - |
| 1777873181 | 31.11° C | 71% | 1010.4 hPa | - | - | - | - |
| 1777871981 | 31.11° C | 69% | 1010.6 hPa | - | - | - | - |
| 1777870781 | 31.11° C | 70% | 1010.9 hPa | - | - | - | - |
| 1777869581 | 31.11° C | 70% | 1011 hPa | - | - | - | - |
| 1777868381 | 31.11° C | 71% | 1011.3 hPa | - | - | - | - |
| 1777867181 | 30.56° C | 72% | 1011.4 hPa | - | - | - | - |
| 1777865981 | 30.56° C | 74% | 1011.6 hPa | - | - | - | - |
* Rain since midnight (hover to see other rain measurements)
** Current wind speed in m/s (hover to see current wind gust speed)